Fort Morgan, CO

5:11 AM MDT on September 04, 2015 (GMT -0600)
Green Acres | | Change Station
CLOSE
Current Station
Personal Weather Station
Location: Fort Morgan, CO
Elevation: 4327 ft
Nearby Weather Stations

Elev 4327 ft 40.26 °N, 103.80 °W | Updated 1 second ago

Clear
Clear
54.9 °F
Feels Like 54.9 °F
N
0.0
Wind Variable Wind from WSW
Gusts 0.0 mph

Today
High -- | Low -- °F
--% Chance of Precip.
Yesterday
High -- | Low -- °F
Precip. -- in
6:25 AM 7:22 PM
Waning Gibbous, 60% visible
Pressure 29.96 in
Visibility 10.0 miles
Clouds Clear
Dew Point 52 °F
Humidity 91%
Rainfall 0.00 in
Snow Depth Not available.
UV 0.0 out of 12
Pollen 10.20 out of 12
Air Quality Not available.
Flu Activity Not available.
METAR KFMM 041055Z AUTO 25006KT 10SM CLR 11/09 A2996 RMK AO2 T01070088
Pressure 29.96 in
Visibility 10.0 miles
Clouds Clear
Dew Point 52 °F
Humidity 91%
Rainfall 0.00 in
Snow Depth Not available.
UV 0.0 out of 12
Pollen 10.20 out of 12
Air Quality Not available.
Flu Activity Not available.
METAR KFMM 041055Z AUTO 25006KT 10SM CLR 11/09 A2996 RMK AO2 T01070088

10-Day Weather Forecast

×

Almanac

Astronomy

Sep. 04, 2015 Rise Set
Actual Time
Civil Twilight
Nautical Twilight
Astronomical Twilight
Moon
Length of Visible Light
Length of Day
Tomorrow will be .
, % of the Moon is Illuminated

Today's Extremes

State Highs State Lows

Community

WunderPhotos

Upload Photos

1,852,150 photos uploaded!

WunderBlogs® & News

Nearby

Air Quality

  Air Quality AQ Index Pollutant
Not available.

Snow Depth

Station Depth Elevation

Earthquake Activity

City Distance Mag. Time & Date
Minimum magnitude displayed is 2.5.

Coastal Water Temperatures

Place Temperature

Stations

Nearby Weather Stations

Station Location Temp. Windchill Dew Point Humidity Wind Precip. Elev Updated Type